GIA009 WIPP-WIII

Flight info

Callsign GIA009
Flight time 0h 48m
Altitude 28000
Route UDOKO T5 BUNIK
Aircraft B738/M-SDE2E3FGHIRWXY/LB1

Departure

Time 2026-04-28 10:48
Airport Sultan Mahmud Badaruddin II Airport (WIPP)

Arrival

Time 2026-04-28 11:36
Airport Soekarno-Hatta International Airport (WIII)
Time Latitude Longitude Altitude Speed Heading
2026-04-28 10:05 -2.89589 104.70385 31 ft 0 kts 23°
2026-04-28 10:39 -2.89590 104.70385 25 ft 1 kts 23°
2026-04-28 10:39 -2.89613 104.70376 31 ft 4 kts 19°
2026-04-28 10:40 -2.89638 104.70368 30 ft 4 kts 11°
2026-04-28 10:40 -2.89664 104.70365 28 ft 4 kts 351°
2026-04-28 10:40 -2.89685 104.70374 31 ft 2 kts 294°
2026-04-28 10:40 -2.89685 104.70376 31 ft 1 kts 292°
2026-04-28 10:42 -2.89684 104.70373 29 ft 4 kts 292°
2026-04-28 10:42 -2.89657 104.70304 27 ft 16 kts 287°
2026-04-28 10:42 -2.89687 104.70231 27 ft 11 kts 207°
2026-04-28 10:43 -2.89723 104.70167 23 ft 13 kts 281°
2026-04-28 10:43 -2.89686 104.70070 22 ft 17 kts 293°
2026-04-28 10:43 -2.89636 104.69953 18 ft 19 kts 292°
2026-04-28 10:43 -2.89587 104.69834 18 ft 18 kts 293°
2026-04-28 10:44 -2.89532 104.69704 18 ft 23 kts 292°
2026-04-28 10:44 -2.89461 104.69537 18 ft 29 kts 293°
2026-04-28 10:44 -2.89380 104.69345 20 ft 32 kts 293°
2026-04-28 10:44 -2.89290 104.69130 18 ft 33 kts 293°
2026-04-28 10:45 -2.89315 104.68998 19 ft 14 kts 207°
2026-04-28 10:45 -2.89373 104.68924 20 ft 17 kts 276°
2026-04-28 10:45 -2.89319 104.68777 19 ft 28 kts 294°
2026-04-28 10:45 -2.89268 104.68610 19 ft 13 kts 261°
2026-04-28 10:46 -2.89229 104.68549 17 ft 7 kts
2026-04-28 10:46 -2.89212 104.68571 17 ft 8 kts 73°
2026-04-28 10:46 -2.89231 104.68629 18 ft 9 kts 137°
2026-04-28 10:46 -2.89275 104.68676 17 ft 9 kts 116°
2026-04-28 10:47 -2.89301 104.68735 17 ft 9 kts 113°
2026-04-28 10:47 -2.89416 104.69009 20 ft 88 kts 112°
2026-04-28 10:47 -2.89764 104.69838 19 ft 167 kts 111°
2026-04-28 10:47 -2.90270 104.71052 513 ft 200 kts 110°
2026-04-28 10:48 -2.90767 104.72410 1266 ft 219 kts 108°
2026-04-28 10:48 -2.91265 104.73989 1605 ft 252 kts 106°
2026-04-28 10:48 -2.91788 104.75682 2243 ft 260 kts 107°
2026-04-28 10:48 -2.92321 104.77381 2976 ft 264 kts 107°
2026-04-28 10:49 -2.92885 104.79154 3932 ft 262 kts 108°
2026-04-28 10:49 -2.93447 104.80899 4843 ft 266 kts 108°
2026-04-28 10:49 -2.94312 104.82542 5664 ft 271 kts 129°
2026-04-28 10:49 -2.95562 104.83973 6524 ft 274 kts 131°
2026-04-28 10:50 -2.96814 104.85356 7313 ft 278 kts 131°
2026-04-28 10:50 -2.98159 104.86841 8147 ft 281 kts 131°
2026-04-28 10:50 -2.99474 104.88303 8958 ft 285 kts 131°
2026-04-28 10:50 -3.00803 104.89792 9776 ft 288 kts 131°
2026-04-28 10:51 -3.02146 104.91306 10504 ft 292 kts 131°
2026-04-28 10:51 -3.03479 104.92813 11246 ft 295 kts 131°
2026-04-28 10:51 -3.04850 104.94370 11999 ft 299 kts 131°
2026-04-28 10:51 -3.06229 104.95939 12728 ft 302 kts 131°
2026-04-28 10:52 -3.07633 104.97538 13461 ft 306 kts 131°
2026-04-28 10:52 -3.09025 104.99126 14114 ft 310 kts 131°
2026-04-28 10:52 -3.10473 105.00777 14774 ft 313 kts 131°
2026-04-28 10:52 -3.11918 105.02427 15429 ft 316 kts 131°
2026-04-28 10:53 -3.13358 105.04071 16080 ft 320 kts 131°
2026-04-28 10:53 -3.14829 105.05752 16728 ft 323 kts 131°
2026-04-28 10:53 -3.16317 105.07452 17356 ft 327 kts 130°
2026-04-28 10:53 -3.17823 105.09172 17996 ft 330 kts 130°
2026-04-28 10:54 -3.19343 105.10909 18550 ft 334 kts 130°
2026-04-28 10:54 -3.20880 105.12665 19093 ft 337 kts 130°
2026-04-28 10:54 -3.22433 105.14440 19645 ft 340 kts 130°
2026-04-28 10:54 -3.23996 105.16226 20198 ft 343 kts 130°
2026-04-28 10:55 -3.25578 105.18034 20745 ft 346 kts 131°
2026-04-28 10:55 -3.27169 105.19852 21285 ft 349 kts 131°
2026-04-28 10:55 -3.28772 105.21685 21811 ft 352 kts 131°
2026-04-28 10:55 -3.30392 105.23536 22340 ft 356 kts 130°
2026-04-28 10:56 -3.32039 105.25419 22855 ft 359 kts 131°
2026-04-28 10:56 -3.33690 105.27306 23358 ft 362 kts 131°
2026-04-28 10:56 -3.35356 105.29211 23785 ft 365 kts 130°
2026-04-28 10:56 -3.37037 105.31133 24224 ft 367 kts 130°
2026-04-28 10:57 -3.38725 105.33063 24655 ft 370 kts 130°
2026-04-28 10:57 -3.40419 105.35001 25071 ft 373 kts 130°
2026-04-28 10:57 -3.42138 105.36967 25480 ft 376 kts 130°
2026-04-28 10:57 -3.43868 105.38945 25897 ft 378 kts 130°
2026-04-28 10:58 -3.45604 105.40930 26307 ft 381 kts 130°
2026-04-28 10:58 -3.47351 105.42928 26806 ft 380 kts 130°
2026-04-28 10:58 -3.49086 105.44912 27361 ft 378 kts 130°
2026-04-28 10:58 -3.50819 105.46896 27790 ft 380 kts 130°
2026-04-28 10:59 -3.52555 105.48882 27784 ft 379 kts 130°
2026-04-28 10:59 -3.54292 105.50869 27818 ft 378 kts 130°
2026-04-28 10:59 -3.55999 105.52822 27820 ft 378 kts 130°
2026-04-28 10:59 -3.57743 105.54798 27827 ft 379 kts 133°
2026-04-28 11:00 -3.59677 105.56586 27826 ft 380 kts 139°
2026-04-28 11:00 -3.61708 105.58288 27822 ft 380 kts 139°
2026-04-28 11:00 -3.63750 105.59967 27821 ft 380 kts 140°
2026-04-28 11:00 -3.65801 105.61648 27823 ft 380 kts 140°
2026-04-28 11:01 -3.67840 105.63326 27822 ft 380 kts 139°
2026-04-28 11:01 -3.69880 105.65012 27827 ft 380 kts 139°
2026-04-28 11:01 -3.71915 105.66702 27824 ft 380 kts 139°
2026-04-28 11:01 -3.73950 105.68395 27823 ft 380 kts 139°
2026-04-28 11:02 -3.75977 105.70085 27821 ft 380 kts 139°
2026-04-28 11:02 -3.78008 105.71779 27828 ft 379 kts 139°
2026-04-28 11:02 -3.80036 105.73473 27827 ft 379 kts 139°
2026-04-28 11:02 -3.82057 105.75160 27825 ft 379 kts 139°
2026-04-28 11:03 -3.84074 105.76845 27828 ft 378 kts 139°
2026-04-28 11:03 -3.86097 105.78534 27831 ft 378 kts 139°
2026-04-28 11:03 -3.88117 105.80222 27829 ft 378 kts 139°
2026-04-28 11:03 -3.90133 105.81906 27831 ft 378 kts 139°
2026-04-28 11:04 -3.92157 105.83597 27835 ft 378 kts 139°
2026-04-28 11:04 -3.94167 105.85277 27833 ft 377 kts 139°
2026-04-28 11:04 -3.96187 105.86964 27835 ft 377 kts 139°
2026-04-28 11:04 -3.98201 105.88647 27834 ft 377 kts 139°
2026-04-28 11:05 -4.00217 105.90332 27840 ft 377 kts 139°
2026-04-28 11:05 -4.02234 105.92018 27840 ft 377 kts 139°
2026-04-28 11:05 -4.04250 105.93702 27842 ft 378 kts 139°
2026-04-28 11:05 -4.06271 105.95392 27840 ft 378 kts 139°
2026-04-28 11:06 -4.08289 105.97078 27837 ft 378 kts 139°
2026-04-28 11:06 -4.10282 105.98744 27841 ft 378 kts 139°
2026-04-28 11:06 -4.12329 106.00455 27836 ft 378 kts 139°
2026-04-28 11:06 -4.14346 106.02142 27840 ft 378 kts 139°
2026-04-28 11:07 -4.16344 106.03812 27838 ft 378 kts 139°
2026-04-28 11:07 -4.18354 106.05493 27839 ft 378 kts 139°
2026-04-28 11:07 -4.20384 106.07190 27839 ft 378 kts 139°
2026-04-28 11:07 -4.22408 106.08883 27841 ft 378 kts 139°
2026-04-28 11:08 -4.24431 106.10575 27839 ft 378 kts 139°
2026-04-28 11:08 -4.26448 106.12262 27847 ft 378 kts 139°
2026-04-28 11:08 -4.28464 106.13948 27840 ft 378 kts 139°
2026-04-28 11:08 -4.30489 106.15642 27842 ft 378 kts 139°
2026-04-28 11:09 -4.32507 106.17330 27844 ft 378 kts 139°
2026-04-28 11:09 -4.34518 106.19013 27842 ft 378 kts 139°
2026-04-28 11:09 -4.36540 106.20705 27848 ft 378 kts 139°
2026-04-28 11:09 -4.38550 106.22387 27845 ft 378 kts 139°
2026-04-28 11:10 -4.40573 106.24080 27846 ft 377 kts 139°
2026-04-28 11:10 -4.42591 106.25768 27845 ft 377 kts 139°
2026-04-28 11:10 -4.44608 106.27456 27843 ft 378 kts 139°
2026-04-28 11:10 -4.46622 106.29142 27846 ft 378 kts 139°
2026-04-28 11:11 -4.48634 106.30827 27849 ft 377 kts 139°
2026-04-28 11:11 -4.50649 106.32513 27842 ft 377 kts 139°
2026-04-28 11:11 -4.52666 106.34202 27847 ft 377 kts 139°
2026-04-28 11:11 -4.54685 106.35892 27841 ft 377 kts 139°
2026-04-28 11:12 -4.56699 106.37579 27842 ft 377 kts 139°
2026-04-28 11:12 -4.58711 106.39264 27849 ft 377 kts 139°
2026-04-28 11:12 -4.60724 106.40950 27844 ft 377 kts 139°
2026-04-28 11:12 -4.62742 106.42640 27842 ft 377 kts 139°
2026-04-28 11:13 -4.64730 106.44304 27842 ft 377 kts 139°
2026-04-28 11:13 -4.66742 106.45990 27841 ft 377 kts 139°
2026-04-28 11:13 -4.68729 106.47654 27822 ft 366 kts 139°
2026-04-28 11:13 -4.70645 106.49259 27824 ft 353 kts 139°
2026-04-28 11:14 -4.72504 106.50816 27827 ft 345 kts 139°
2026-04-28 11:14 -4.74344 106.52359 27844 ft 345 kts 139°
2026-04-28 11:14 -4.76189 106.53906 27856 ft 347 kts 139°
2026-04-28 11:14 -4.78035 106.55454 27852 ft 349 kts 139°
2026-04-28 11:15 -4.79912 106.57027 27856 ft 350 kts 139°
2026-04-28 11:15 -4.81778 106.58591 27851 ft 350 kts 139°
2026-04-28 11:15 -4.83651 106.60161 27678 ft 353 kts 139°
2026-04-28 11:15 -4.85739 106.61481 27138 ft 359 kts 159°
2026-04-28 11:16 -4.88179 106.61993 26707 ft 361 kts 180°
2026-04-28 11:16 -4.90678 106.61773 26299 ft 361 kts 186°
2026-04-28 11:16 -4.93179 106.61412 25848 ft 363 kts 188°
2026-04-28 11:16 -4.95674 106.61020 25417 ft 364 kts 188°
2026-04-28 11:17 -4.98136 106.60629 24999 ft 365 kts 188°
2026-04-28 11:17 -5.00692 106.60230 24572 ft 366 kts 188°
2026-04-28 11:17 -5.03209 106.59846 24154 ft 366 kts 187°
2026-04-28 11:17 -5.04874 106.59595 23879 ft 366 kts 187°
2026-04-28 11:18 -5.08256 106.59093 23324 ft 367 kts 187°
2026-04-28 11:18 -5.09929 106.58847 23002 ft 367 kts 187°
2026-04-28 11:18 -5.12451 106.58477 22518 ft 367 kts 187°
2026-04-28 11:18 -5.14986 106.58106 22044 ft 367 kts 187°
2026-04-28 11:19 -5.17511 106.57737 21577 ft 367 kts 187°
2026-04-28 11:19 -5.20034 106.57369 21115 ft 367 kts 187°
2026-04-28 11:19 -5.22551 106.57002 20661 ft 366 kts 187°
2026-04-28 11:19 -5.25078 106.56633 20218 ft 366 kts 187°
2026-04-28 11:20 -5.27595 106.56266 19775 ft 365 kts 187°
2026-04-28 11:20 -5.30105 106.55900 19343 ft 365 kts 187°
2026-04-28 11:20 -5.32614 106.55534 18916 ft 364 kts 187°
2026-04-28 11:20 -5.35114 106.55169 18492 ft 363 kts 186°
2026-04-28 11:21 -5.37624 106.54802 18074 ft 363 kts 186°
2026-04-28 11:21 -5.40119 106.54439 17587 ft 362 kts 186°
2026-04-28 11:21 -5.42598 106.54077 17114 ft 361 kts 187°
2026-04-28 11:21 -5.45082 106.53714 16654 ft 360 kts 187°
2026-04-28 11:22 -5.47556 106.53353 16179 ft 359 kts 187°
2026-04-28 11:22 -5.50015 106.52994 15737 ft 358 kts 187°
2026-04-28 11:22 -5.52476 106.52634 15277 ft 352 kts 187°
2026-04-28 11:22 -5.54868 106.52284 14824 ft 343 kts 187°
2026-04-28 11:23 -5.57213 106.51941 14383 ft 335 kts 187°
2026-04-28 11:23 -5.59493 106.51608 13952 ft 328 kts 187°
2026-04-28 11:23 -5.61737 106.51280 13501 ft 322 kts 187°
2026-04-28 11:23 -5.63934 106.50959 13029 ft 316 kts 187°
2026-04-28 11:24 -5.66090 106.50644 12549 ft 311 kts 186°
2026-04-28 11:24 -5.68220 106.50333 12078 ft 306 kts 186°
2026-04-28 11:24 -5.70305 106.50029 11637 ft 302 kts 186°
2026-04-28 11:24 -5.72370 106.49727 11167 ft 298 kts 186°
2026-04-28 11:25 -5.74396 106.49431 10729 ft 295 kts 186°
2026-04-28 11:25 -5.76441 106.49132 10284 ft 293 kts 186°
2026-04-28 11:25 -5.78447 106.48840 9906 ft 296 kts 186°
2026-04-28 11:25 -5.80510 106.48539 9523 ft 296 kts 186°
2026-04-28 11:26 -5.82506 106.48247 9142 ft 290 kts 187°
2026-04-28 11:26 -5.84479 106.47958 8758 ft 283 kts 187°
2026-04-28 11:26 -5.86410 106.47676 8388 ft 278 kts 187°
2026-04-28 11:26 -5.88306 106.47398 8022 ft 273 kts 187°
2026-04-28 11:27 -5.90170 106.47126 7657 ft 269 kts 187°
2026-04-28 11:27 -5.92007 106.46857 7299 ft 264 kts 187°
2026-04-28 11:27 -5.93816 106.46593 6941 ft 261 kts 187°
2026-04-28 11:27 -5.95581 106.46335 6602 ft 256 kts 187°
2026-04-28 11:28 -5.97333 106.46078 6293 ft 248 kts 187°
2026-04-28 11:28 -5.99035 106.45829 5927 ft 246 kts 187°
2026-04-28 11:28 -6.00724 106.45583 5563 ft 244 kts 187°
2026-04-28 11:28 -6.02399 106.45338 5188 ft 242 kts 187°
2026-04-28 11:29 -6.04058 106.45095 4836 ft 241 kts 187°
2026-04-28 11:29 -6.05710 106.44853 4473 ft 239 kts 187°
2026-04-28 11:29 -6.07349 106.44613 4111 ft 237 kts 187°
2026-04-28 11:29 -6.08971 106.44376 3733 ft 232 kts 187°
2026-04-28 11:30 -6.10551 106.44145 3373 ft 226 kts 187°
2026-04-28 11:30 -6.13597 106.43699 2643 ft 217 kts 187°
2026-04-28 11:30 -6.15064 106.43509 2277 ft 212 kts 179°
2026-04-28 11:31 -6.16414 106.43928 2052 ft 203 kts 141°
2026-04-28 11:31 -6.17285 106.45038 2042 ft 203 kts 111°
2026-04-28 11:31 -6.17519 106.46402 2010 ft 192 kts 90°
2026-04-28 11:31 -6.17505 106.47699 1990 ft 182 kts 88°
2026-04-28 11:32 -6.17462 106.48965 1995 ft 181 kts 85°
2026-04-28 11:32 -6.17118 106.50179 2001 ft 179 kts 66°
2026-04-28 11:32 -6.16654 106.51282 1984 ft 161 kts 68°
2026-04-28 11:32 -6.16263 106.52254 1999 ft 144 kts 68°
2026-04-28 11:33 -6.15867 106.53242 2028 ft 157 kts 68°
2026-04-28 11:33 -6.15463 106.54251 2005 ft 155 kts 68°
2026-04-28 11:33 -6.15057 106.55264 2005 ft 156 kts 68°
2026-04-28 11:33 -6.14658 106.56263 1808 ft 152 kts 68°
2026-04-28 11:34 -6.14265 106.57247 1420 ft 151 kts 68°
2026-04-28 11:34 -6.13880 106.58208 1310 ft 145 kts 68°
2026-04-28 11:34 -6.13504 106.59151 1168 ft 146 kts 68°
2026-04-28 11:34 -6.13121 106.60110 827 ft 150 kts 67°
2026-04-28 11:35 -6.12740 106.61065 624 ft 151 kts 67°
2026-04-28 11:35 -6.12338 106.62086 559 ft 155 kts 68°
2026-04-28 11:35 -6.11935 106.63038 420 ft 142 kts 66°
2026-04-28 11:35 -6.11576 106.63941 218 ft 137 kts 67°
2026-04-28 11:36 -6.11249 106.64821 42 ft 129 kts 66°
2026-04-28 11:36 -6.10943 106.65571 42 ft 99 kts 68°
2026-04-28 11:36 -6.10728 106.66107 38 ft 65 kts 69°
2026-04-28 11:36 -6.10627 106.66443 38 ft 34 kts 97°
2026-04-28 11:37 -6.10673 106.66640 37 ft 13 kts 127°
2026-04-28 11:37 -6.10767 106.66690 37 ft 19 kts 162°
2026-04-28 11:37 -6.10782 106.66695 37 ft 1 kts 166°
2026-04-28 11:37 -6.10793 106.66680 36 ft 8 kts 243°
2026-04-28 11:38 -6.10843 106.66562 36 ft 29 kts 249°
2026-04-28 11:38 -6.10929 106.66341 37 ft 36 kts 248°
2026-04-28 11:38 -6.11025 106.66098 36 ft 36 kts 249°
2026-04-28 11:38 -6.11116 106.66009 38 ft 14 kts 170°
2026-04-28 11:39 -6.11239 106.66057 39 ft 26 kts 155°
2026-04-28 11:39 -6.11368 106.66116 35 ft 14 kts 155°
2026-04-28 11:39 -6.11413 106.66175 38 ft 0 kts 134°
2026-04-28 11:39 -6.11428 106.66189 38 ft 7 kts 134°
2026-04-28 11:40 -6.11432 106.66193 37 ft 0 kts 141°
2026-04-28 11:40 -6.11433 106.66193 37 ft 0 kts 144°
2026-04-28 11:41 -6.11454 106.66189 30 ft 8 kts 201°
2026-04-28 11:41 -6.11533 106.66166 37 ft 9 kts 168°
2026-04-28 11:41 -6.11565 106.66176 37 ft 0 kts 157°